Home > Time Zones > World Clock > Weather > Qatar > Doha > Past weeks

Flag for Qatar Weather past 2 weeks in Doha, Qatar

Now
79 °F

Sunny.


Feels Like: 79 °F
Forecast: 61 / 74 °F
Wind: 16 mph from Northwest

Location: Doha International Airport

Current Time: Feb 1, 2015 at 2:49:38 PM

Latest Report: Feb 1, 2015 at 2:00 PM


Visibility: 10 mi

Pressure: 30.01 "Hg

Humidity: 37%

Dew point: 50 °F

Location of DohaLocation

Historic Weather in Doha — Graph

°F

Doha temperature yesterday

Maximum temperature yesterday: 90 °F (at 2:00 PM)
Minimum temperature yesterday: 66 °F (at 4:30 AM)
Average temperature yesterday: 75 °F

Past Weeks' High & Low Weather Summary

 TemperatureHumidityPressure
High90 °F (Jan 31, 2:00 PM)100% (Jan 27, 9:00 AM)30.30 "Hg (Jan 27, 9:00 AM)
Low54 °F (Jan 21, 5:00 AM)18% (Jan 31, 3:00 PM)29.98 "Hg (Jan 29, 4:30 AM)
Average65 °F66%30.13 "Hg
* Reported Jan 17 1:00 PM — Feb 1 1:30 PM, Doha, Weather by CustomWeather, © 2014

Note: Actual official high and low records may vary slightly from our data, if they occured in-between our weather recording intervals... More about our weather records

Advertising

Doha weather history for previous 24 hours

 ConditionsComfort  
Time TempWeatherWind HumidityBarometerVisibility
1:30 PM
Feb 1
81 °FSunny.18 mph37%30.04 "Hg10 mi
1:00 PM79 °FPassing clouds.17 mph39%30.04 "HgN/A
12:00 PM79 °FPassing clouds.14 mph48%30.07 "HgN/A
11:00 AM77 °FSunny.12 mph54%30.07 "Hg10 mi
10:30 AM75 °FPassing clouds.12 mph57%30.09 "HgN/A
10:00 AM75 °FSunny.13 mph61%30.09 "Hg10 mi
9:30 AM73 °FSunny.14 mph69%30.12 "Hg10 mi
9:00 AM72 °FPassing clouds.13 mph78%30.09 "Hg5 mi
8:30 AM70 °FPassing clouds.9 mph83%30.09 "Hg4 mi
8:00 AM70 °FScattered clouds.10 mph83%30.09 "Hg4 mi
7:30 AM68 °FScattered clouds.9 mph88%30.09 "Hg4 mi
7:00 AM68 °FScattered clouds.9 mph88%30.07 "Hg4 mi
6:30 AM66 °FClear.10 mph88%30.07 "Hg4 mi
6:00 AM66 °FClear.12 mph88%30.07 "Hg4 mi
5:00 AM66 °FPassing clouds.10 mph88%30.07 "Hg2 mi
4:30 AM66 °FFog.14 mph88%30.04 "Hg2 mi
3:00 AM68 °FClear.6 mph73%30.04 "Hg10 mi
2:00 AM68 °FClear.2 mph73%30.04 "Hg10 mi
1:00 AM70 °FPassing clouds.5 mph69%30.07 "HgN/A
12:00 AM70 °FPassing clouds.7 mph73%30.04 "HgN/A
11:00 PM
Jan 31
70 °FClear.7 mph78%30.04 "Hg10 mi
10:00 PM68 °FClear.6 mph83%30.04 "Hg10 mi
9:00 PM70 °FPassing clouds.6 mph78%30.04 "HgN/A
8:30 PM70 °FPassing clouds.7 mph78%30.04 "HgN/A
8:00 PM72 °FPassing clouds.6 mph65%30.04 "HgN/A
7:30 PM72 °FClear.2 mph73%30.04 "Hg10 mi
7:00 PM73 °FClear.3 mph61%30.04 "Hg10 mi
6:30 PM73 °FClear.3 mph61%30.04 "Hg10 mi
6:00 PM73 °FClear.5 mph61%30.01 "Hg10 mi
5:30 PM75 °FClear.6 mph57%30.01 "Hg10 mi
5:00 PM79 °FSunny.5 mph54%30.01 "Hg10 mi
4:30 PM84 °FPassing clouds.6 mph40%29.98 "HgN/A
4:00 PM90 °FPassing clouds.6 mph20%29.98 "HgN/A
3:30 PM90 °FPassing clouds.10 mph20%29.98 "HgN/A
3:00 PM90 °FSunny.12 mph18%29.98 "Hg10 mi
2:30 PM90 °FPassing clouds.10 mph20%29.98 "HgN/A
2:00 PM90 °FPassing clouds.9 mph21%30.01 "HgN/A
Weather by CustomWeather, © 2014

See weather overviewHow to use our weather pages